Time,TemperatureF,DewpointF,PressureIn,WindDirection,WindDirectionDegrees,WindSpeedMPH,WindSpeedGustMPH,Humidity,HourlyPrecipIn,Conditions,Clouds,dailyrainin,SoftwareType,DateUTC
2013-01-28 00:02:00,38.0,33.0,29.70,ESE,112,8.0,11.0,83,0.00,,,0.02,,2013-01-28 07:02:00,
2013-01-28 00:11:00,38.0,33.0,29.70,ESE,112,8.0,11.0,83,0.00,,,0.02,,2013-01-28 07:11:00,
2013-01-28 00:21:00,38.0,33.0,29.72,SSE,157,4.0,7.0,82,0.00,,,0.02,,2013-01-28 07:21:00,
2013-01-28 00:31:00,39.0,33.0,29.72,ENE,67,3.0,6.0,80,0.00,,,0.02,,2013-01-28 07:31:00,
2013-01-28 00:41:00,39.0,33.0,29.72,ENE,67,3.0,6.0,80,0.00,,,0.02,,2013-01-28 07:41:00,
2013-01-28 00:51:00,38.0,32.0,29.71,ESE,112,4.0,6.0,78,0.00,,,0.01,,2013-01-28 07:51:00,
2013-01-28 01:01:00,38.0,32.0,29.71,WSW,247,3.0,5.0,78,0.00,,,0.01,,2013-01-28 08:01:00,
2013-01-28 01:11:00,38.0,32.0,29.71,WSW,247,3.0,5.0,78,0.00,,,0.01,,2013-01-28 08:11:00,
2013-01-28 01:21:00,37.0,31.0,29.71,SSW,202,3.0,5.0,80,0.00,,,0.01,,2013-01-28 08:21:00,
2013-01-28 01:31:00,36.0,32.0,29.69,ENE,67,3.0,4.0,85,0.00,,,0.01,,2013-01-28 08:31:00,
2013-01-28 01:41:00,36.0,32.0,29.69,ENE,67,3.0,4.0,85,0.00,,,0.01,,2013-01-28 08:41:00,
2013-01-28 01:52:00,36.0,32.0,29.69,NE,45,4.0,5.0,85,0.00,,,0.01,,2013-01-28 08:52:00,
2013-01-28 02:01:00,35.0,32.0,29.67,WNW,292,2.0,3.0,87,0.00,,,0.01,,2013-01-28 09:01:00,
2013-01-28 02:11:00,35.0,32.0,29.67,WNW,292,2.0,3.0,87,0.00,,,0.01,,2013-01-28 09:11:00,
2013-01-28 02:21:00,33.0,31.0,29.67,South,180,1.0,2.0,92,0.00,,,0.01,,2013-01-28 09:21:00,
2013-01-28 02:31:00,34.0,31.0,29.67,North,360,5.0,6.0,89,0.00,,,0.01,,2013-01-28 09:31:00,
2013-01-28 02:41:00,34.0,31.0,29.67,North,360,5.0,6.0,89,0.00,,,0.01,,2013-01-28 09:41:00,
2013-01-28 02:52:00,34.0,31.0,29.67,NW,315,4.0,5.0,88,0.00,,,0.01,,2013-01-28 09:52:00,
2013-01-28 03:01:00,33.0,30.0,29.66,West,270,3.0,4.0,89,0.00,,,0.01,,2013-01-28 10:01:00,
2013-01-28 03:11:00,33.0,30.0,29.66,West,270,3.0,4.0,89,0.00,,,0.01,,2013-01-28 10:11:00,
2013-01-28 03:21:00,33.0,31.0,29.67,SW,225,3.0,4.0,91,0.00,,,0.01,,2013-01-28 10:21:00,
2013-01-28 03:31:00,33.0,32.0,29.67,ENE,67,0.0,0.0,95,0.00,,,0.01,,2013-01-28 10:31:00,
2013-01-28 03:41:00,33.0,32.0,29.67,ENE,67,0.0,0.0,95,0.00,,,0.01,,2013-01-28 10:41:00,
2013-01-28 03:51:00,34.0,32.0,29.67,North,360,2.0,2.0,92,0.00,,,0.01,,2013-01-28 10:51:00,
2013-01-28 04:01:00,34.0,32.0,29.66,NNW,337,1.0,2.0,92,0.00,,,0.01,,2013-01-28 11:01:00,
2013-01-28 04:11:00,34.0,32.0,29.66,NNW,337,1.0,2.0,92,0.00,,,0.01,,2013-01-28 11:11:00,
2013-01-28 04:21:00,35.0,32.0,29.66,East,90,2.0,2.0,88,0.00,,,0.01,,2013-01-28 11:21:00,
2013-01-28 04:31:00,36.0,32.0,29.66,NE,45,2.0,2.0,85,0.00,,,0.01,,2013-01-28 11:31:00,
2013-01-28 04:41:00,36.0,32.0,29.66,NE,45,2.0,2.0,85,0.00,,,0.01,,2013-01-28 11:41:00,
2013-01-28 04:52:00,35.0,32.0,29.67,South,180,5.0,6.0,88,0.00,,,0.01,,2013-01-28 11:52:00,
2013-01-28 05:02:00,37.0,33.0,29.66,SE,135,2.0,3.0,84,0.00,,,0.01,,2013-01-28 12:02:00,
2013-01-28 05:11:00,37.0,33.0,29.66,SE,135,2.0,3.0,84,0.00,,,0.01,,2013-01-28 12:11:00,
2013-01-28 05:22:00,38.0,32.0,29.65,ESE,112,5.0,6.0,79,0.00,,,0.01,,2013-01-28 12:22:00,
2013-01-28 05:32:00,38.0,32.0,29.65,SE,135,2.0,2.0,79,0.00,,,0.01,,2013-01-28 12:32:00,
2013-01-28 05:41:00,38.0,32.0,29.65,SE,135,2.0,2.0,79,0.00,,,0.01,,2013-01-28 12:41:00,
2013-01-28 05:52:00,39.0,32.0,29.65,SE,135,3.0,4.0,76,0.00,,,0.01,,2013-01-28 12:52:00,
2013-01-28 06:02:00,38.0,31.0,29.65,SE,135,2.0,2.0,77,0.00,,,0.01,,2013-01-28 13:02:00,
2013-01-28 06:11:00,38.0,31.0,29.65,SE,135,2.0,2.0,77,0.00,,,0.01,,2013-01-28 13:11:00,
2013-01-28 06:22:00,38.0,32.0,29.66,SSE,157,2.0,4.0,78,0.00,,,0.01,,2013-01-28 13:22:00,
2013-01-28 06:32:00,37.0,31.0,29.64,South,180,3.0,5.0,79,0.00,,,0.01,,2013-01-28 13:32:00,
2013-01-28 06:41:00,37.0,31.0,29.64,South,180,3.0,5.0,79,0.00,,,0.01,,2013-01-28 13:41:00,
2013-01-28 06:52:00,37.0,32.0,29.65,South,180,3.0,4.0,81,0.00,,,0.01,,2013-01-28 13:52:00,
2013-01-28 07:02:00,37.0,33.0,29.66,SE,135,3.0,4.0,85,0.00,,,0.01,,2013-01-28 14:02:00,
2013-01-28 07:11:00,37.0,33.0,29.66,SE,135,3.0,4.0,85,0.00,,,0.01,,2013-01-28 14:11:00,
2013-01-28 07:21:00,36.0,33.0,29.65,ESE,112,2.0,2.0,87,0.00,,,0.01,,2013-01-28 14:21:00,
2013-01-28 07:32:00,35.0,32.0,29.65,ENE,67,2.0,4.0,90,0.00,,,0.01,,2013-01-28 14:32:00,
2013-01-28 07:42:00,35.0,32.0,29.65,ENE,67,2.0,4.0,90,0.00,,,0.01,,2013-01-28 14:42:00,
2013-01-28 07:52:00,35.0,33.0,29.65,ENE,67,1.0,2.0,92,0.00,,,0.02,,2013-01-28 14:52:00,
2013-01-28 08:02:00,35.0,33.0,29.65,North,360,1.0,2.0,93,0.00,,,0.02,,2013-01-28 15:02:00,
2013-01-28 08:11:00,35.0,33.0,29.65,North,360,1.0,2.0,93,0.00,,,0.02,,2013-01-28 15:11:00,
2013-01-28 08:22:00,33.0,32.0,29.66,NW,315,4.0,5.0,95,0.00,,,0.03,,2013-01-28 15:22:00,
2013-01-28 08:32:00,32.0,31.0,29.66,NW,315,1.0,2.0,95,0.00,,,0.03,,2013-01-28 15:32:00,
2013-01-28 08:42:00,32.0,31.0,29.66,NW,315,1.0,2.0,95,0.00,,,0.03,,2013-01-28 15:42:00,
2013-01-28 08:52:00,32.0,31.0,29.66,NNW,337,2.0,2.0,95,0.00,,,0.03,,2013-01-28 15:52:00,
2013-01-28 09:02:00,32.0,31.0,29.65,NNE,22,3.0,4.0,95,0.00,,,0.04,,2013-01-28 16:02:00,
2013-01-28 09:11:00,32.0,31.0,29.65,NNE,22,3.0,4.0,95,0.00,,,0.04,,2013-01-28 16:11:00,
2013-01-28 09:21:00,32.0,31.0,29.65,NE,45,2.0,4.0,95,0.00,,,0.04,,2013-01-28 16:21:00,
2013-01-28 09:31:00,32.0,31.0,29.65,North,360,7.0,9.0,95,0.00,,,0.05,,2013-01-28 16:31:00,
2013-01-28 09:42:00,32.0,31.0,29.65,North,360,7.0,9.0,95,0.00,,,0.05,,2013-01-28 16:42:00,
2013-01-28 09:52:00,31.0,30.0,29.66,North,360,5.0,6.0,95,0.00,,,0.06,,2013-01-28 16:52:00,
2013-01-28 10:01:00,31.0,30.0,29.66,WSW,247,2.0,5.0,95,0.00,,,0.06,,2013-01-28 17:01:00,
2013-01-28 10:11:00,31.0,30.0,29.66,WSW,247,2.0,5.0,95,0.00,,,0.06,,2013-01-28 17:11:00,
2013-01-28 10:22:00,32.0,31.0,29.67,WNW,292,1.0,2.0,95,0.00,,,0.06,,2013-01-28 17:22:00,
2013-01-28 10:31:00,32.0,31.0,29.67,NW,315,0.0,0.0,95,0.00,,,0.09,,2013-01-28 17:31:00,
2013-01-28 10:41:00,32.0,31.0,29.67,NW,315,0.0,0.0,95,0.00,,,0.09,,2013-01-28 17:41:00,
2013-01-28 10:52:00,33.0,32.0,29.67,NE,45,2.0,2.0,95,0.00,,,0.11,,2013-01-28 17:52:00,
2013-01-28 11:01:00,33.0,32.0,29.67,North,360,2.0,2.0,95,0.00,,,0.12,,2013-01-28 18:01:00,
2013-01-28 11:11:00,33.0,32.0,29.67,North,360,2.0,2.0,95,0.00,,,0.12,,2013-01-28 18:11:00,
2013-01-28 11:22:00,32.0,31.0,29.69,NW,315,3.0,4.0,95,0.00,,,0.13,,2013-01-28 18:22:00,
2013-01-28 11:33:00,32.0,31.0,29.67,WNW,292,4.0,6.0,95,0.00,,,0.14,,2013-01-28 18:33:00,
2013-01-28 11:42:00,32.0,31.0,29.67,WNW,292,4.0,6.0,95,0.00,,,0.14,,2013-01-28 18:42:00,
2013-01-28 11:52:00,33.0,32.0,29.67,NNW,337,2.0,2.0,95,0.00,,,0.15,,2013-01-28 18:52:00,
2013-01-28 12:01:00,34.0,32.0,29.67,North,360,2.0,2.0,94,0.00,,,0.15,,2013-01-28 19:01:00,
2013-01-28 12:11:00,35.0,32.0,29.67,SW,225,2.0,2.0,89,0.00,,,0.15,,2013-01-28 19:11:00,
2013-01-28 12:21:00,35.0,32.0,29.67,SW,225,2.0,2.0,89,0.00,,,0.15,,2013-01-28 19:21:00,
2013-01-28 12:31:00,36.0,32.0,29.67,East,90,2.0,2.0,85,0.00,,,0.15,,2013-01-28 19:31:00,
2013-01-28 12:42:00,36.0,32.0,29.67,East,90,2.0,2.0,85,0.00,,,0.15,,2013-01-28 19:42:00,
2013-01-28 12:51:00,36.0,31.0,29.67,NE,45,1.0,2.0,81,0.00,,,0.15,,2013-01-28 19:51:00,
2013-01-28 13:01:00,36.0,31.0,29.69,North,360,0.0,0.0,82,0.00,,,0.15,,2013-01-28 20:01:00,
2013-01-28 13:11:00,36.0,31.0,29.69,North,360,0.0,0.0,82,0.00,,,0.15,,2013-01-28 20:11:00,
2013-01-28 13:21:00,35.0,28.0,29.69,West,270,9.0,14.0,75,0.00,,,0.15,,2013-01-28 20:21:00,
2013-01-28 13:32:00,34.0,28.0,29.67,West,270,8.0,12.0,79,0.00,,,0.15,,2013-01-28 20:32:00,
2013-01-28 13:42:00,34.0,28.0,29.67,West,270,8.0,12.0,79,0.00,,,0.15,,2013-01-28 20:42:00,
2013-01-28 13:52:00,33.0,30.0,29.67,West,270,5.0,9.0,88,0.00,,,0.15,,2013-01-28 20:52:00,
2013-01-28 14:02:00,32.0,29.0,29.67,SSW,202,2.0,3.0,89,0.00,,,0.15,,2013-01-28 21:02:00,
2013-01-28 14:11:00,32.0,29.0,29.67,SSW,202,2.0,3.0,89,0.00,,,0.15,,2013-01-28 21:11:00,
2013-01-28 14:21:00,33.0,30.0,29.67,South,180,6.0,11.0,88,0.00,,,0.15,,2013-01-28 21:21:00,
2013-01-28 14:32:00,35.0,27.0,29.67,SSW,202,6.0,7.0,71,0.00,,,0.15,,2013-01-28 21:32:00,
2013-01-28 14:42:00,35.0,27.0,29.67,SSW,202,6.0,7.0,71,0.00,,,0.15,,2013-01-28 21:42:00,
2013-01-28 14:52:00,35.0,26.0,29.67,ESE,112,4.0,6.0,70,0.00,,,0.15,,2013-01-28 21:52:00,
2013-01-28 15:01:00,36.0,27.0,29.67,SE,135,4.0,7.0,70,0.00,,,0.15,,2013-01-28 22:01:00,
2013-01-28 15:11:00,36.0,27.0,29.67,SE,135,4.0,7.0,70,0.00,,,0.15,,2013-01-28 22:11:00,
2013-01-28 15:22:00,37.0,24.0,29.67,SSW,202,11.0,14.0,58,0.00,,,0.15,,2013-01-28 22:22:00,
2013-01-28 15:31:00,36.0,22.0,29.67,SW,225,11.0,14.0,57,0.00,,,0.15,,2013-01-28 22:31:00,
2013-01-28 15:42:00,36.0,22.0,29.67,SW,225,11.0,14.0,57,0.00,,,0.15,,2013-01-28 22:42:00,
2013-01-28 15:52:00,36.0,23.0,29.67,SW,225,7.0,9.0,58,0.00,,,0.15,,2013-01-28 22:52:00,
2013-01-28 16:01:00,35.0,23.0,29.67,WSW,247,3.0,4.0,61,0.00,,,0.15,,2013-01-28 23:01:00,
2013-01-28 16:11:00,35.0,23.0,29.67,WSW,247,3.0,4.0,61,0.00,,,0.15,,2013-01-28 23:11:00,
2013-01-28 16:21:00,34.0,23.0,29.67,SW,225,10.0,12.0,65,0.00,,,0.15,,2013-01-28 23:21:00,
2013-01-28 16:31:00,33.0,24.0,29.66,SW,225,9.0,11.0,70,0.00,,,0.15,,2013-01-28 23:31:00,
2013-01-28 16:41:00,33.0,24.0,29.66,SW,225,9.0,11.0,70,0.00,,,0.15,,2013-01-28 23:41:00,
2013-01-28 16:52:00,32.0,25.0,29.66,SW,225,6.0,7.0,74,0.00,,,0.15,,2013-01-28 23:52:00,
2013-01-28 17:01:00,32.0,25.0,29.65,SW,225,5.0,7.0,75,0.00,,,0.15,,2013-01-29 00:01:00,
2013-01-28 17:11:00,32.0,25.0,29.65,SW,225,5.0,7.0,75,0.00,,,0.15,,2013-01-29 00:11:00,
2013-01-28 17:21:00,32.0,25.0,29.65,SW,225,5.0,7.0,75,0.00,,,0.15,,2013-01-29 00:21:00,
2013-01-28 17:32:00,32.0,24.0,29.63,SSW,202,11.0,12.0,72,0.00,,,0.15,,2013-01-29 00:32:00,
2013-01-28 17:41:00,32.0,24.0,29.63,SSW,202,11.0,12.0,72,0.00,,,0.15,,2013-01-29 00:41:00,
2013-01-28 17:52:00,31.0,25.0,29.63,SSW,202,8.0,10.0,77,0.00,,,0.15,,2013-01-29 00:52:00,
2013-01-28 18:01:00,31.0,25.0,29.63,SSW,202,7.0,8.0,78,0.00,,,0.15,,2013-01-29 01:01:00,
2013-01-28 18:11:00,31.0,25.0,29.63,SSW,202,7.0,8.0,78,0.00,,,0.15,,2013-01-29 01:11:00,
2013-01-28 18:22:00,31.0,21.0,29.63,SSW,202,8.0,10.0,67,0.00,,,0.15,,2013-01-29 01:22:00,
2013-01-28 18:31:00,33.0,23.0,29.64,WSW,247,9.0,14.0,65,0.00,,,0.15,,2013-01-29 01:31:00,
2013-01-28 18:41:00,33.0,23.0,29.64,WSW,247,9.0,14.0,65,0.00,,,0.15,,2013-01-29 01:41:00,
2013-01-28 18:52:00,29.0,26.0,29.64,NW,315,5.0,9.0,90,0.00,,,0.15,,2013-01-29 01:52:00,
2013-01-28 19:01:00,27.0,26.0,29.64,North,360,9.0,12.0,94,0.00,,,0.15,,2013-01-29 02:01:00,
2013-01-28 19:11:00,27.0,26.0,29.64,North,360,9.0,12.0,94,0.00,,,0.15,,2013-01-29 02:11:00,
2013-01-28 19:21:00,26.0,25.0,29.66,WNW,292,9.0,13.0,94,0.00,,,0.15,,2013-01-29 02:21:00,
2013-01-28 19:32:00,25.0,24.0,29.66,WNW,292,13.0,19.0,94,0.00,,,0.15,,2013-01-29 02:32:00,
2013-01-28 19:41:00,25.0,24.0,29.66,WNW,292,13.0,19.0,94,0.00,,,0.15,,2013-01-29 02:41:00,
2013-01-28 19:52:00,23.0,21.0,29.66,West,270,8.0,11.0,93,0.00,,,0.15,,2013-01-29 02:52:00,
2013-01-28 20:02:00,23.0,21.0,29.66,NW,315,10.0,13.0,93,0.00,,,0.15,,2013-01-29 03:02:00,
2013-01-28 20:21:00,23.0,21.0,29.66,West,270,8.0,11.0,93,0.00,,,0.15,,2013-01-29 03:21:00,
2013-01-28 20:31:00,23.0,21.0,29.66,NW,315,3.0,5.0,93,0.00,,,0.15,,2013-01-29 03:31:00,
2013-01-28 20:41:00,23.0,21.0,29.66,NW,315,3.0,5.0,93,0.00,,,0.15,,2013-01-29 03:41:00,
2013-01-28 20:52:00,23.0,21.0,29.66,WNW,292,6.0,7.0,93,0.00,,,0.15,,2013-01-29 03:52:00,
2013-01-28 21:01:00,23.0,21.0,29.66,NW,315,6.0,8.0,93,0.00,,,0.15,,2013-01-29 04:01:00,
2013-01-28 21:11:00,23.0,21.0,29.66,NW,315,6.0,8.0,93,0.00,,,0.15,,2013-01-29 04:11:00,
2013-01-28 21:21:00,23.0,21.0,29.66,WNW,292,7.0,11.0,93,0.00,,,0.15,,2013-01-29 04:21:00,
2013-01-28 21:31:00,23.0,21.0,29.66,NW,315,3.0,6.0,93,0.00,,,0.15,,2013-01-29 04:31:00,
2013-01-28 21:41:00,23.0,21.0,29.66,NW,315,3.0,6.0,93,0.00,,,0.15,,2013-01-29 04:41:00,
2013-01-28 21:52:00,23.0,21.0,29.66,NW,315,3.0,6.0,93,0.00,,,0.15,,2013-01-29 04:52:00,
2013-01-28 22:12:00,23.0,21.0,29.66,West,270,5.0,7.0,92,0.00,,,0.15,,2013-01-29 05:12:00,
2013-01-28 22:21:00,23.0,21.0,29.66,WNW,292,4.0,6.0,91,0.00,,,0.15,,2013-01-29 05:21:00,
2013-01-28 22:31:00,23.0,20.0,29.66,WNW,292,4.0,6.0,88,0.00,,,0.15,,2013-01-29 05:31:00,
2013-01-28 22:42:00,23.0,20.0,29.66,WNW,292,4.0,6.0,88,0.00,,,0.15,,2013-01-29 05:42:00,
2013-01-28 22:52:00,23.0,20.0,29.67,WNW,292,4.0,8.0,88,0.00,,,0.15,,2013-01-29 05:52:00,
2013-01-28 23:01:00,23.0,20.0,29.67,West,270,2.0,2.0,88,0.00,,,0.15,,2013-01-29 06:01:00,
2013-01-28 23:11:00,23.0,20.0,29.67,West,270,2.0,2.0,88,0.00,,,0.15,,2013-01-29 06:11:00,
2013-01-28 23:21:00,23.0,20.0,29.67,SSW,202,3.0,3.0,89,0.00,,,0.15,,2013-01-29 06:21:00,
2013-01-28 23:31:00,23.0,21.0,29.67,South,180,3.0,4.0,90,0.00,,,0.15,,2013-01-29 06:31:00,
2013-01-28 23:41:00,23.0,21.0,29.67,South,180,3.0,4.0,90,0.00,,,0.15,,2013-01-29 06:41:00,
2013-01-28 23:52:00,23.0,21.0,29.67,SE,135,2.0,2.0,92,0.00,,,0.15,,2013-01-29 06:52:00,